Location: Castellare
(42.4669°N, 9.4728°E)
Time: 11:48:00
(UTC+00:00)

Aureole 2 Rocket - Pass Details

Date: 17 February 2020
Orbit: 308 x 448 km, 73.9° (Epoch: 08 April)

Event Time Altitude Azimuth Distance (km) Brightness Sun altitude
Exits shadow 04:18:52 - 10° (N) 1,538 5.3 -22.4°
Reaches altitude 10° 04:19:26 10° 17° (NNE) 1,363 5.1 -22.3°
Drops below altitude 10° 04:23:43 10° 108° (ESE) 1,412 5.9 -21.5°
Enters shadow 05:25:35 -57° 342° (NNW) 11,113 9.4 -10.1°
Maximum altitude 05:55:18 20° 257° (WSW) 971 3.6 -4.7°
